Cardak, Turkey

7:01 PM +03 on April 24, 2017 (GMT +0300)
Cardak Air Base

Weather History for LTAY - August, 2014

Change the Weather History Date:

Saturday, August 9, 2014

  Actual Average Record
Temperature  
Mean Temperature 73 °F -  
Max Temperature 86 °F - - ()
Min Temperature 60 °F - - ()
Cooling Degree Days 8    
Growing Degree Days 23 (Base 50)    
Moisture  
Dew Point 57 °F    
Average Humidity 58    
Maximum Humidity 94    
Minimum Humidity 31    
Precipitation  
Precipitation 0.00 in - - ()
Sea Level Pressure  
Sea Level Pressure 29.93 in    
Wind  
Wind Speed 6 mph ()    
Max Wind Speed 14 mph    
Max Gust Speed 20 mph    
Visibility 6.2 miles    
Events      
T = Trace of Precipitation, MM = Missing Value Source: Averaged Metar Reports

Daily Weather History Graph

Daily Weather History Graph

Search for Another Location

Airport or City:

Trip Planner

Search our weather history database for the weather conditions in past years. The results will help you decide how hot, cold, wet, or windy it might be!

Date:

Astronomy

Aug. 09, 2014 Rise Set
Actual Time 6:11 AM EEST 8:01 PM EEST
Civil Twilight 5:42 AM EEST 8:30 PM EEST
Nautical Twilight 5:08 AM EEST 9:04 PM EEST
Astronomical Twilight 4:31 AM EEST 9:41 PM EEST
Moon 6:47 PM EEST (8/9) 4:29 AM EEST (8/9)
Length of Visible Light 14h 47m
Length of Day
13h 50m
Waxing Gibbous, 97% of the Moon is Illuminated
Aug 9
Waxing Gibbous
Aug 10
Full
Aug 17
Last Quarter
Aug 25
New
Sep 2
First Quarter

Hourly Weather History & Observations

Time (EEST) Temp. Heat Index Dew Point Humidity Pressure Visibility Wind Dir Wind Speed Gust Speed Precip Events Conditions
12:50 AM 68.0 °F - 57.2 °F 68% 29.95 in - West 6.9 mph - N/A   Clear
1:50 AM 68.0 °F - 59.0 °F 73% 29.95 in - West 6.9 mph - N/A   Clear
3:50 AM 64.4 °F - 57.2 °F 77% 29.95 in - West 5.8 mph - N/A   Clear
4:50 AM 62.6 °F - 57.2 °F 82% 29.95 in - WSW 5.8 mph - N/A   Clear
5:50 AM 60.8 °F - 59.0 °F 94% 29.95 in - WSW 4.6 mph - N/A   Clear
6:50 AM 60.8 °F - 59.0 °F 94% 29.95 in - WSW 3.5 mph - N/A   Clear
7:50 AM 66.2 °F - 60.8 °F 83% 29.95 in - WSW 3.5 mph - N/A   Clear
8:50 AM 69.8 °F - 60.8 °F 73% 29.95 in - West 4.6 mph - N/A   Clear
9:50 AM 73.4 °F - 59.0 °F 61% 29.95 in 6.2 mi Variable 2.3 mph - N/A   Partly Cloudy
10:50 AM 77.0 °F - 59.0 °F 54% 29.95 in 6.2 mi Variable 1.2 mph - N/A   Scattered Clouds
11:50 AM 78.8 °F - 59.0 °F 51% 29.95 in 6.2 mi WNW 3.5 mph - N/A   Scattered Clouds
12:50 PM 82.4 °F 82.0 °F 57.2 °F 42% 29.92 in 6.2 mi East 2.3 mph - N/A   Scattered Clouds
1:50 PM 84.2 °F 83.0 °F 55.4 °F 37% 29.92 in 6.2 mi Variable 4.6 mph - N/A   Scattered Clouds
2:50 PM 84.2 °F 83.0 °F 55.4 °F 37% 29.89 in 6.2 mi Variable 5.8 mph 19.6 mph N/A   Scattered Clouds
3:50 PM 86.0 °F - 51.8 °F 31% 29.89 in 6.2 mi WNW 9.2 mph - N/A   Scattered Clouds
4:50 PM 86.0 °F 84.5 °F 55.4 °F 35% 29.86 in 6.2 mi WNW 13.8 mph - N/A   Scattered Clouds
5:50 PM 84.2 °F 83.0 °F 55.4 °F 37% 29.86 in 6.2 mi West 13.8 mph - N/A   Scattered Clouds
6:50 PM 82.4 °F 82.0 °F 57.2 °F 42% 29.89 in 6.2 mi WNW 13.8 mph - N/A   Partly Cloudy
7:50 PM 78.8 °F - 57.2 °F 47% 29.89 in 6.2 mi West 9.2 mph - N/A   Partly Cloudy
8:50 PM 75.2 °F - 57.2 °F 53% 29.92 in 6.2 mi West 10.4 mph - N/A   Partly Cloudy
9:50 PM 73.4 °F - 57.2 °F 57% 29.95 in 6.2 mi WSW 11.5 mph - N/A   Partly Cloudy
10:50 PM 73.4 °F - 57.2 °F 57% 29.95 in 6.2 mi West 9.2 mph - N/A   Scattered Clouds
11:50 PM 71.6 °F - 57.2 °F 60% 29.98 in 6.2 mi Variable 4.6 mph - N/A   Partly Cloudy